Погода в Ленинском

Россия / Республика Марий Эл     56°33′49″N   45°56′48″E
темп.,
°C
ветер,
м/с
пор.,
м/с
влажн.,
%
обл.,
%
осадки,
мм/ч
давл.,
гПа
погр.,
м
25 февраля, чт
чт2500:00−21ю2595100 0.0 1034133
03:00−21ю3894100 0.0 1031223
06:00−19ю4992100 0.0 1026351
09:00−17ю51096100 1.1 1023441
12:00−15ююв51095100 1.8 1019601
15:00−14ю4994100 3.6 1017659
18:00−13ююв3795100 0.6 1015454
21:00−15вюв239798 0.8 101494
26 февраля, пт
пт2600:00−15вюв259790 0.1 1014159
03:00−16вюв269795 0.3 1015180
06:00−18вюв259894 0.1 1013114
09:00−16юв369695 0.1 1013237
12:00−12юв4994100 0.0 1010352
15:00−10юв61194100 0.4 1006426
18:00−9юв61394100 3.9 1000480
21:00−7юв4896100 7.4 997265
27 февраля, сб
сб2700:00−4ююв1498100 1.1 995157
03:000з4998100 1.5 995509
06:000з2699100 0.8 993352
09:00−5св3598100 2.5 995156
12:00−7ссв4795100 0.8 996358
15:00−9ссв5893100 1.0 999517
18:00−11ссв51092100 0.3 1002618
21:00−12с4993100 0.4 1004563
28 февраля, вс
вс2800:00−14с41094100 0.1 1006383
03:00−17с4109495 0.1 1009267
06:00−19ссз389654 0.0 1010235
09:00−18с379445 0.0 1012291
12:00−13ссз369185 0.0 1014508
15:00−12с478993 0.1 1015647
18:00−15с2695100 0.0 1017121
21:00−18с239795 0.1 102035
1 марта, пн
пн100:00−20ссз229924 0.0 102120
03:00−21ссз229812 0.0 102220
06:00−22сз12990 0.0 102320
09:00−17з13966 0.0 1023141
12:00−11юз249364 0.0 1021333
15:00−8юз479582 0.1 1019384
18:00−7юз41294100 0.1 1015547
21:00−4юз51295100 1.1 1010617